Regional Weather Roundup
Issued by NWS

Home | Current Version | Previous Version | Graphics & Text | Print | Product List | Glossary On
Versions: 1 2 3 4 5 6 7 8 9 10 11 12 13 14 15 16 17 18 19 20 21 22 23 24 25 26 27 28 29 30 31 32 33 34 35 36 37 38 39 40 41 42 43 44 45 46 47 48 49 50
000
ASUS43 KIND 162209
RWRIN

WEATHER ROUNDUP FOR INDIANA
NATIONAL WEATHER SERVICE INDIANAPOLIS IN
500 PM EST SAT DEC 16 2017

NOTE: "FAIR" INDICATES FEW OR NO CLOUDS BELOW 12,000 FEET WITH NO
SIGNIFICANT WEATHER AND/OR OBSTRUCTIONS TO VISIBILITY.

* - STATION DOES NOT REPORT WEATHER SUCH AS PRECIPITATION OR FOG.

+ - STATION NOT QUALITY CONTROLLED BY THE NATIONAL WEATHER SERVICE.
    USE DATA WITH CAUTION...ESPECIALLY DEWPOINT AND RELATIVE
    HUMIDITY OBSERVATIONS.

INZ001>003-010>013-019-020-162300-
NORTHWEST INDIANA

CITY           SKY/WX    TMP DP  RH WIND       PRES   REMARKS
GARY /AIRPORT/ PTCLDY    48  23  37 SW3       29.95R
KNOX *+        CLEAR     43  30  61 SW6       29.95R
LA PORTE +     CLEAR     39  28  64 SE3       29.95R
MICHIGAN CITY+ CLEAR     43  28  56 CALM      29.96R
MONTICELLO +   CLEAR     46  27  46 S8        29.96R
RENSSELAER +   CLEAR     46  18  31 SW7       29.95R
VALPARAISO     CLEAR     47  27  45 SW7       29.95R

$$

LMZ046-743>745-162300-
SOUTHERN LAKE MICHIGAN

STATION/POSITION TIME  TEMP    WIND        PRES    WAVE
                       AIR SEA DIR/SP/G            HT
                 (UTC) (F)     (DEG/KT/KT) (MB)    (FT)
BURNS HARBOR     2140   47     210/  5/  9 1014.6R
MICHIGAN CITY    2140   38      40/  7/  7   N/A

$$

INZ004-005-014>016-021>024-162300-
NORTH CENTRAL INDIANA

CITY           SKY/WX    TMP DP  RH WIND       PRES   REMARKS
ELKHART        CLEAR     39  27  60 SE3       29.97R
GOSHEN         CLEAR     41  29  62 SE3       29.97R
LOGANSPORT +   CLEAR     43  28  56 SW6       29.98R
PERU/GRISSOM   CLEAR     43  28  54 SW8       29.96R
ROCHESTER +    CLEAR     45  30  57 S3        29.97R
SOUTH BEND     CLEAR     39  28  64 CALM      29.97R
WARSAW +       CLEAR     43  28  56 CALM      29.97R

$$

INZ006>009-017-018-025>027-162300-
NORTHEAST INDIANA

CITY           SKY/WX    TMP DP  RH WIND       PRES   REMARKS
AUBURN +       CLEAR     41  28  60 CALM      29.99R
FORT WAYNE     PTCLDY    42  30  62 SW5       29.99R
HUNTINGTON +   CLEAR     44  26  49 CALM      29.98R

$$

INZ028-029-035-036-043>045-051>053-162300-
WEST CENTRAL INDIANA

CITY           SKY/WX    TMP DP  RH WIND       PRES   REMARKS
CRAWFORDSVL +  CLEAR     45  30  54 MISG      29.98R
GREENCASTLE +  CLEAR     46  30  53 S9G17     30.00R
LAFAYETTE      CLEAR     47  29  49 S7        29.96S
TERRE HAUTE    CLEAR     50  29  44 S9        30.01R

$$

INZ030>032-037>040-046>048-054>057-064-065-162300-
CENTRAL INDIANA

CITY           SKY/WX    TMP DP  RH WIND       PRES   REMARKS
COLUMBUS       CLEAR     48  21  34 SW13      30.03R
FRANKFORT +    CLEAR     48  30  50 SW6       30.00R
GREENWOOD *+   CLEAR     52  31  44 SW9       30.00S
INDIANAPOLIS   PTCLDY    48  29  47 SW9       29.99S
-EAGLE CREEK   CLEAR     48  28  46 SW10G18   29.99R
KOKOMO +       CLEAR     45  28  51 SW10      29.98R
MARION +       CLEAR     44  28  53 SW6       29.99R HAZE
MT COMFORT *+  CLEAR     46  32  57 S9        30.00R
SHELBYVILLE    CLEAR     49  26  41 SW13      30.00R
ZIONSVILLE +   CLEAR     46  29  52 SW10      29.99R

$$

INZ033-034-041-042-049-050-058-059-162300-
EAST CENTRAL INDIANA

CITY           SKY/WX    TMP DP  RH WIND       PRES   REMARKS
MUNCIE         CLEAR     49  27  42 SW9       29.98R
RICHMOND +     CLEAR     41  27  56 SW10      30.01S

$$

INZ060-061-067>069-081>083-085>088-162300-
SOUTHWEST INDIANA

CITY           SKY/WX    TMP DP  RH WIND       PRES   REMARKS
EVANSVILLE     CLEAR     51  29  42 S15       30.09R
HUNTINGBURG +  CLEAR     49  29  46 S13       30.09R
WASHINGTON +   CLEAR     49  27  42 S10       30.05R

$$

INZ062-063-066-070>080-084-089>092-162300-
SOUTH CENTRAL AND SOUTHEAST INDIANA

CITY           SKY/WX    TMP DP  RH WIND       PRES   REMARKS
BEDFORD +      CLEAR     48  27  43 SW12      30.05R
BLOOMINGTON    CLEAR     49  27  42 SW9       30.02S
MADISON *+     CLEAR     46  27  46 S12       30.09S
NORTH VERNON + CLEAR     46  27  46 S7        30.06R
SEYMOUR +      CLEAR     48  28  46 S9        30.06R

$$





USA.gov is the U.S. government's official web portal to all federal, state and local government web resources and services.